This is the latest recevied weather packets stored in our database for station/object WA1NHP. If no packets are shown the sender has not sent any weather packets the latest 10 day(s).
| Time | Temp. | Humidity | Pressure | Rain* | Wind** | Luminosity | Snow |
|---|---|---|---|---|---|---|---|
| 1777352044 | 7.22° C | 73% | 1023.9 hPa | 0 mm | - | 0 W/m² | - |
| 1777351444 | 7.22° C | 72% | 1023.9 hPa | 0 mm | - | 0 W/m² | - |
| 1777350844 | 7.22° C | 71% | 1023.9 hPa | 0 mm | - | 0 W/m² | - |
| 1777350244 | 7.22° C | 71% | 1023.9 hPa | 0 mm | - | 0 W/m² | - |
| 1777349644 | 7.78° C | 70% | 1023.9 hPa | 0 mm | - | 0 W/m² | - |
| 1777349044 | 7.78° C | 71% | 1023.9 hPa | 0 mm | - | 0 W/m² | - |
| 1777348443 | 8.33° C | 67% | 1023.9 hPa | 0 mm | - | 0 W/m² | - |
| 1777347844 | 8.33° C | 67% | 1023.9 hPa | 0 mm | - | 0 W/m² | - |
| 1777347244 | 8.89° C | 68% | 1023.9 hPa | 0 mm | - | 0 W/m² | - |
| 1777346644 | 9.44° C | 67% | 1023.9 hPa | 0 mm | - | 0 W/m² | - |
| 1777346044 | 10° C | 61% | 1023.9 hPa | 0 mm | - | 0 W/m² | - |
| 1777345444 | 10° C | 60% | 1023.9 hPa | 0 mm | - | 0 W/m² | - |
| 1777344845 | 10.56° C | 60% | 1023.9 hPa | 0 mm | - | 0 W/m² | - |
| 1777344244 | 11.11° C | 57% | 1023.9 hPa | 0 mm | - | 0 W/m² | - |
| 1777343645 | 11.11° C | 57% | 1023.9 hPa | 0 mm | - | 0 W/m² | - |
| 1777343043 | 11.11° C | 58% | 1023.9 hPa | 0 mm | - | 0 W/m² | - |
| 1777342444 | 11.67° C | 54% | 1023.9 hPa | 0 mm | - | 0 W/m² | - |
| 1777341844 | 12.22° C | 52% | 1023.9 hPa | 0 mm | - | 0 W/m² | - |
| 1777341244 | 12.78° C | 52% | 1023.9 hPa | 0 mm | - | 0 W/m² | - |
| 1777340644 | 12.78° C | 51% | 1023.9 hPa | 0 mm | - | 0 W/m² | - |
| 1777340044 | 12.78° C | 51% | 1023.9 hPa | 0 mm | - | 0 W/m² | - |
| 1777339444 | 13.33° C | 51% | 1023.9 hPa | 0 mm | - | 0 W/m² | - |
| 1777338844 | 13.33° C | 50% | 1023.9 hPa | 0 mm | - | 0 W/m² | - |
| 1777338245 | 13.89° C | 49% | 1023.9 hPa | 0 mm | - | 0 W/m² | - |
| 1777337644 | 13.89° C | 48% | 1023.9 hPa | 0 mm | - | 0 W/m² | - |
* Rain latest hour (hover to see other rain measurements)
** Current wind speed in m/s (hover to see current wind gust speed)